DLH329 EDDN-EDDH

Flight info

Callsign DLH329
Flight time 0h 50m
Altitude 33000
Route SULUS1G SULUS L604 MASEK DCT ELNAT/N0442F340 P605 NOLGO NOLGO3P
Aircraft A20N/M-SDE2E3FGHIRWXY/LB1

Departure

Time 2026-04-23 15:32
Airport Nuremberg Airport (EDDN)

Arrival

Time 2026-04-23 16:23
Airport Hamburg Helmut Schmidt Airport (EDDH)
Time Latitude Longitude Altitude Speed Heading
2026-04-23 14:39 49.49547 11.07456 1033 ft 0 kts 188°
2026-04-23 15:14 49.49553 11.07457 1033 ft 2 kts 188°
2026-04-23 15:15 49.49573 11.07461 1033 ft 3 kts 185°
2026-04-23 15:15 49.49593 11.07463 1034 ft 3 kts 181°
2026-04-23 15:15 49.49613 11.07463 1035 ft 2 kts 173°
2026-04-23 15:15 49.49621 11.07461 1036 ft 10 kts 171°
2026-04-23 15:17 49.49618 11.07464 1036 ft 1 kts 154°
2026-04-23 15:17 49.49617 11.07470 1036 ft 1 kts 126°
2026-04-23 15:17 49.49616 11.07473 1036 ft 1 kts 115°
2026-04-23 15:19 49.49616 11.07477 1036 ft 1 kts 112°
2026-04-23 15:19 49.49614 11.07484 1036 ft 0 kts 105°
2026-04-23 15:20 49.49614 11.07486 1036 ft 1 kts 99°
2026-04-23 15:20 49.49611 11.07522 1036 ft 6 kts 99°
2026-04-23 15:20 49.49603 11.07602 1037 ft 9 kts 97°
2026-04-23 15:20 49.49594 11.07713 1037 ft 12 kts 99°
2026-04-23 15:21 49.49579 11.07855 1038 ft 15 kts 98°
2026-04-23 15:21 49.49561 11.08026 1038 ft 18 kts 104°
2026-04-23 15:21 49.49542 11.08220 1038 ft 19 kts 96°
2026-04-23 15:21 49.49569 11.08357 1042 ft 11 kts 24°
2026-04-23 15:22 49.49632 11.08419 1042 ft 11 kts 58°
2026-04-23 15:22 49.49682 11.08521 1044 ft 12 kts 42°
2026-04-23 15:22 49.49701 11.08547 1044 ft 0 kts 39°
2026-04-23 15:31 49.49706 11.08552 1044 ft 2 kts 34°
2026-04-23 15:31 49.49756 11.08561 1043 ft 14 kts 344°
2026-04-23 15:32 49.49813 11.08371 1044 ft 46 kts 282°
2026-04-23 15:32 49.49908 11.07435 1044 ft 126 kts 281°
2026-04-23 15:32 49.50086 11.05804 1265 ft 169 kts 282°
2026-04-23 15:32 49.50290 11.03942 2045 ft 188 kts 281°
2026-04-23 15:33 49.50483 11.01885 2777 ft 201 kts 281°
2026-04-23 15:33 49.50687 10.99652 3454 ft 222 kts 281°
2026-04-23 15:33 49.50915 10.97198 4164 ft 241 kts 281°
2026-04-23 15:33 49.51408 10.94637 4789 ft 260 kts 302°
2026-04-23 15:34 49.52680 10.92569 5402 ft 278 kts 328°
2026-04-23 15:34 49.54549 10.91491 5958 ft 299 kts 353°
2026-04-23 15:34 49.56700 10.91548 6448 ft 322 kts
2026-04-23 15:34 49.59001 10.92012 6866 ft 344 kts
2026-04-23 15:35 49.61454 10.92433 7262 ft 363 kts
2026-04-23 15:35 49.63996 10.92695 8033 ft 369 kts
2026-04-23 15:35 49.66574 10.92842 8872 ft 373 kts
2026-04-23 15:35 49.69186 10.92687 9713 ft 379 kts 354°
2026-04-23 15:36 49.71801 10.91961 10510 ft 384 kts 347°
2026-04-23 15:36 49.74357 10.90715 11297 ft 388 kts 342°
2026-04-23 15:36 49.76885 10.89343 12031 ft 392 kts 342°
2026-04-23 15:36 49.79481 10.87955 12763 ft 396 kts 342°
2026-04-23 15:37 49.82102 10.86555 13498 ft 401 kts 342°
2026-04-23 15:37 49.84761 10.85134 14176 ft 406 kts 342°
2026-04-23 15:37 49.87441 10.83699 14835 ft 409 kts 342°
2026-04-23 15:37 49.88087 10.83353 14981 ft 410 kts 343°
2026-04-23 15:38 49.89934 10.82363 15416 ft 413 kts 343°
2026-04-23 15:38 49.94160 10.80092 16399 ft 419 kts 343°
2026-04-23 15:38 49.96928 10.78602 17010 ft 423 kts 343°
2026-04-23 15:38 49.99720 10.77096 17611 ft 427 kts 343°
2026-04-23 15:39 50.02537 10.75576 18226 ft 431 kts 343°
2026-04-23 15:39 50.05339 10.73817 18764 ft 437 kts 336°
2026-04-23 15:39 50.07964 10.71363 19290 ft 443 kts 327°
2026-04-23 15:39 50.10337 10.68258 19793 ft 450 kts 318°
2026-04-23 15:40 50.12509 10.64700 20286 ft 455 kts 316°
2026-04-23 15:40 50.14694 10.61115 20780 ft 458 kts 316°
2026-04-23 15:40 50.16902 10.57500 21275 ft 461 kts 316°
2026-04-23 15:40 50.19113 10.53875 21739 ft 465 kts 316°
2026-04-23 15:41 50.21356 10.50184 22211 ft 468 kts 316°
2026-04-23 15:41 50.23606 10.46483 22664 ft 471 kts 317°
2026-04-23 15:41 50.25893 10.42794 23107 ft 474 kts 317°
2026-04-23 15:41 50.28206 10.39092 23531 ft 478 kts 317°
2026-04-23 15:42 50.30509 10.35403 23934 ft 481 kts 317°
2026-04-23 15:42 50.32879 10.31593 24307 ft 484 kts 317°
2026-04-23 15:42 50.35179 10.27831 24648 ft 487 kts 315°
2026-04-23 15:42 50.37355 10.23736 24931 ft 490 kts 313°
2026-04-23 15:43 50.39688 10.19831 25222 ft 490 kts 317°
2026-04-23 15:43 50.42074 10.15999 25442 ft 491 kts 317°
2026-04-23 15:43 50.44455 10.12144 25656 ft 493 kts 316°
2026-04-23 15:43 50.46786 10.08183 25855 ft 495 kts 315°
2026-04-23 15:44 50.49041 10.04098 26055 ft 496 kts 313°
2026-04-23 15:44 50.51219 9.99887 26277 ft 497 kts 311°
2026-04-23 15:44 50.53311 9.95572 26447 ft 498 kts 309°
2026-04-23 15:44 50.55326 9.91130 26639 ft 499 kts 307°
2026-04-23 15:45 50.57245 9.86603 26819 ft 496 kts 306°
2026-04-23 15:45 50.59063 9.82000 27005 ft 495 kts 303°
2026-04-23 15:45 50.60778 9.77340 27173 ft 486 kts 302°
2026-04-23 15:45 50.62495 9.72851 27330 ft 474 kts 306°
2026-04-23 15:46 50.64321 9.68516 27494 ft 476 kts 308°
2026-04-23 15:46 50.66420 9.64515 27653 ft 472 kts 318°
2026-04-23 15:46 50.68931 9.61230 27809 ft 467 kts 330°
2026-04-23 15:46 50.71751 9.58869 27961 ft 463 kts 341°
2026-04-23 15:47 50.74827 9.57468 28143 ft 459 kts 353°
2026-04-23 15:47 50.77996 9.57102 28306 ft 456 kts
2026-04-23 15:47 50.81134 9.57716 28487 ft 455 kts 12°
2026-04-23 15:47 50.84254 9.58620 28636 ft 456 kts 12°
2026-04-23 15:48 50.87379 9.59517 28815 ft 457 kts 12°
2026-04-23 15:48 50.90511 9.60416 28985 ft 458 kts 12°
2026-04-23 15:48 50.93658 9.61321 29143 ft 459 kts 12°
2026-04-23 15:48 50.96808 9.62230 29289 ft 460 kts 12°
2026-04-23 15:49 50.99958 9.63141 29298 ft 460 kts 12°
2026-04-23 15:49 51.06258 9.64968 29287 ft 460 kts 13°
2026-04-23 15:50 51.12562 9.66802 29295 ft 461 kts 13°
2026-04-23 15:50 51.18865 9.68640 29283 ft 461 kts 13°
2026-04-23 15:51 51.25249 9.69862 29289 ft 463 kts
2026-04-23 15:51 51.31660 9.70906 29281 ft 463 kts
2026-04-23 15:52 51.38082 9.71957 29295 ft 464 kts
2026-04-23 15:52 51.44464 9.72998 29282 ft 464 kts
2026-04-23 15:53 51.50776 9.74072 29293 ft 434 kts
2026-04-23 15:53 51.53711 9.74631 29282 ft 417 kts
2026-04-23 15:53 51.56594 9.75192 29282 ft 422 kts
2026-04-23 15:54 51.62426 9.76321 29290 ft 425 kts
2026-04-23 15:54 51.68305 9.77440 29273 ft 425 kts
2026-04-23 15:55 51.74188 9.78558 29282 ft 425 kts
2026-04-23 15:55 51.80072 9.79679 29268 ft 426 kts
2026-04-23 15:56 51.85953 9.80804 29283 ft 424 kts
2026-04-23 15:56 51.88827 9.81351 29270 ft 407 kts
2026-04-23 15:56 51.91580 9.81878 29273 ft 389 kts
2026-04-23 15:56 51.94208 9.82384 29267 ft 372 kts 10°
2026-04-23 15:57 51.96738 9.82874 29285 ft 363 kts 10°
2026-04-23 15:57 52.00968 9.83706 29271 ft 371 kts 10°
2026-04-23 15:58 52.06690 9.84824 29288 ft 370 kts 10°
2026-04-23 15:58 52.11559 9.85772 29274 ft 371 kts 10°
2026-04-23 15:59 52.15862 9.86614 29271 ft 372 kts 10°
2026-04-23 15:59 52.20967 9.87614 29269 ft 372 kts 10°
2026-04-23 16:00 52.26081 9.88840 29264 ft 370 kts 17°
2026-04-23 16:00 52.31046 9.91048 29266 ft 370 kts 18°
2026-04-23 16:01 52.36024 9.93229 29268 ft 370 kts 18°
2026-04-23 16:01 52.43479 9.96510 28872 ft 367 kts 18°
2026-04-23 16:02 52.45935 9.97594 28407 ft 365 kts 18°
2026-04-23 16:02 52.48379 9.98675 27927 ft 362 kts 18°
2026-04-23 16:02 52.50807 9.99751 27436 ft 360 kts 18°
2026-04-23 16:02 52.53218 10.00820 26949 ft 357 kts 18°
2026-04-23 16:03 52.55608 10.01882 26462 ft 355 kts 18°
2026-04-23 16:03 52.58001 10.02947 26001 ft 352 kts 18°
2026-04-23 16:03 52.60366 10.04003 25342 ft 356 kts 18°
2026-04-23 16:03 52.62786 10.04927 24455 ft 368 kts 10°
2026-04-23 16:04 52.65384 10.05313 23456 ft 380 kts
2026-04-23 16:04 52.68059 10.05523 22398 ft 389 kts
2026-04-23 16:04 52.70794 10.05733 21353 ft 396 kts
2026-04-23 16:04 52.73579 10.05991 20265 ft 404 kts
2026-04-23 16:05 52.75442 10.06186 19671 ft 406 kts
2026-04-23 16:05 52.79188 10.06608 18782 ft 400 kts
2026-04-23 16:05 52.81918 10.06928 18097 ft 396 kts
2026-04-23 16:05 52.84651 10.07251 17377 ft 391 kts
2026-04-23 16:06 52.87353 10.07572 16668 ft 387 kts
2026-04-23 16:06 52.90028 10.07889 15959 ft 383 kts
2026-04-23 16:06 52.92668 10.08203 15276 ft 379 kts
2026-04-23 16:06 52.95288 10.08514 14625 ft 375 kts
2026-04-23 16:07 52.97876 10.08821 13967 ft 372 kts
2026-04-23 16:07 53.00443 10.09127 13257 ft 368 kts
2026-04-23 16:07 53.02964 10.09635 12566 ft 365 kts 13°
2026-04-23 16:07 53.05430 10.10580 11905 ft 361 kts 13°
2026-04-23 16:08 53.07875 10.11506 11238 ft 358 kts 13°
2026-04-23 16:08 53.10300 10.12443 10633 ft 355 kts 13°
2026-04-23 16:08 53.12659 10.13373 10364 ft 353 kts 13°
2026-04-23 16:08 53.15057 10.14331 10272 ft 355 kts 13°
2026-04-23 16:09 53.17454 10.15295 10260 ft 354 kts 13°
2026-04-23 16:09 53.19848 10.16261 10168 ft 352 kts 13°
2026-04-23 16:09 53.22223 10.17224 9751 ft 350 kts 13°
2026-04-23 16:09 53.24582 10.18181 9164 ft 347 kts 13°
2026-04-23 16:10 53.26915 10.19127 8532 ft 344 kts 13°
2026-04-23 16:10 53.29236 10.20070 7895 ft 342 kts 13°
2026-04-23 16:10 53.31538 10.21007 7351 ft 338 kts 12°
2026-04-23 16:10 53.33791 10.21932 6903 ft 330 kts 12°
2026-04-23 16:11 53.36020 10.22840 6292 ft 328 kts 12°
2026-04-23 16:11 53.38234 10.23737 5606 ft 328 kts 12°
2026-04-23 16:11 53.40442 10.24638 5160 ft 323 kts 12°
2026-04-23 16:11 53.42649 10.25539 5024 ft 330 kts 12°
2026-04-23 16:12 53.44868 10.26450 4991 ft 327 kts 12°
2026-04-23 16:12 53.47054 10.27356 4994 ft 328 kts 12°
2026-04-23 16:12 53.49270 10.28264 4990 ft 328 kts 12°
2026-04-23 16:12 53.51483 10.29169 4996 ft 327 kts 12°
2026-04-23 16:13 53.53697 10.30069 4988 ft 327 kts 12°
2026-04-23 16:13 53.58112 10.31875 4622 ft 324 kts 12°
2026-04-23 16:13 53.60295 10.32776 4184 ft 321 kts 12°
2026-04-23 16:14 53.62473 10.33670 4032 ft 323 kts 11°
2026-04-23 16:14 53.64662 10.34600 3988 ft 326 kts 15°
2026-04-23 16:14 53.66639 10.36444 3991 ft 330 kts 38°
2026-04-23 16:14 53.68221 10.39176 3977 ft 316 kts 44°
2026-04-23 16:15 53.69654 10.41786 3973 ft 299 kts 44°
2026-04-23 16:15 53.71019 10.44280 3969 ft 280 kts 44°
2026-04-23 16:15 53.72501 10.46175 3974 ft 257 kts 19°
2026-04-23 16:15 53.74179 10.46618 3966 ft 237 kts 350°
2026-04-23 16:16 53.75633 10.45622 3972 ft 220 kts 325°
2026-04-23 16:16 53.76838 10.44159 3969 ft 208 kts 324°
2026-04-23 16:16 53.77985 10.42743 3812 ft 204 kts 324°
2026-04-23 16:16 53.79132 10.41328 3595 ft 204 kts 324°
2026-04-23 16:17 53.80248 10.39864 3388 ft 203 kts 314°
2026-04-23 16:17 53.80869 10.37746 3092 ft 207 kts 278°
2026-04-23 16:17 53.80629 10.35351 2985 ft 214 kts 250°
2026-04-23 16:17 53.79861 10.33156 2980 ft 220 kts 238°
2026-04-23 16:18 53.78914 10.31147 2971 ft 213 kts 233°
2026-04-23 16:18 53.77998 10.29303 2981 ft 197 kts 235°
2026-04-23 16:18 53.77157 10.27581 2995 ft 185 kts 235°
2026-04-23 16:18 53.76317 10.25867 2999 ft 193 kts 235°
2026-04-23 16:19 53.75474 10.24143 2999 ft 188 kts 235°
2026-04-23 16:19 53.74655 10.22458 3002 ft 188 kts 236°
2026-04-23 16:19 53.73807 10.20738 2986 ft 189 kts 236°
2026-04-23 16:19 53.72969 10.19028 2936 ft 189 kts 235°
2026-04-23 16:20 53.72132 10.17322 2732 ft 189 kts 236°
2026-04-23 16:20 53.71291 10.15610 2479 ft 191 kts 236°
2026-04-23 16:20 53.70441 10.13877 2206 ft 191 kts 235°
2026-04-23 16:20 53.69596 10.12153 1955 ft 191 kts 235°
2026-04-23 16:21 53.68743 10.10422 1711 ft 192 kts 235°
2026-04-23 16:21 53.67896 10.08702 1432 ft 187 kts 235°
2026-04-23 16:21 53.67091 10.07065 1157 ft 176 kts 235°
2026-04-23 16:21 53.66320 10.05499 941 ft 172 kts 236°
2026-04-23 16:22 53.65574 10.03987 720 ft 161 kts 236°
2026-04-23 16:22 53.64897 10.02607 504 ft 145 kts 236°
2026-04-23 16:22 53.64289 10.01375 318 ft 129 kts 235°
2026-04-23 16:22 53.63745 10.00269 150 ft 116 kts 236°
2026-04-23 16:23 53.63259 9.99269 51 ft 96 kts 230°
2026-04-23 16:23 53.63039 9.98829 47 ft 33 kts 231°
2026-04-23 16:23 53.62899 9.98561 47 ft 27 kts 217°
2026-04-23 16:23 53.62742 9.98472 46 ft 21 kts 182°
2026-04-23 16:24 53.62688 9.98475 46 ft 1 kts 162°
2026-04-23 16:24 53.62681 9.98478 46 ft 1 kts 162°
2026-04-23 16:24 53.62673 9.98484 46 ft 1 kts 151°
2026-04-23 16:24 53.62666 9.98492 46 ft 0 kts 148°
2026-04-23 16:25 53.62665 9.98493 42 ft 0 kts 140°
2026-04-23 16:25 53.62669 9.98517 46 ft 3 kts 57°
2026-04-23 16:25 53.62693 9.98570 44 ft 8 kts 52°
2026-04-23 16:26 53.62697 9.98577 46 ft 0 kts 48°
2026-04-23 16:26 53.62698 9.98579 46 ft 1 kts 48°
2026-04-23 16:26 53.62716 9.98611 46 ft 6 kts 47°
2026-04-23 16:26 53.62757 9.98689 46 ft 12 kts 49°
2026-04-23 16:27 53.62815 9.98805 46 ft 14 kts 52°
2026-04-23 16:27 53.62884 9.98953 47 ft 18 kts 51°
2026-04-23 16:27 53.62967 9.99110 47 ft 16 kts 50°
2026-04-23 16:27 53.63046 9.99274 47 ft 20 kts 51°
2026-04-23 16:28 53.63133 9.99469 48 ft 20 kts 54°
2026-04-23 16:28 53.63224 9.99668 48 ft 21 kts 50°
2026-04-23 16:28 53.63251 9.99720 48 ft 1 kts 47°
2026-04-23 16:28 53.63298 9.99800 49 ft 18 kts 45°
2026-04-23 16:29 53.63393 9.99986 50 ft 23 kts 50°
2026-04-23 16:29 53.63421 10.00172 48 ft 13 kts 131°
2026-04-23 16:29 53.63379 10.00227 50 ft 8 kts 107°
2026-04-23 16:29 53.63368 10.00332 51 ft 11 kts 83°
2026-04-23 16:30 53.63368 10.00345 51 ft 0 kts 83°